User: anonymous   Login
Location: Gungolding
(48.9246°N, 11.3502°E)
Time: 12:39:53
(UTC+02:00)
Language:

Vanguard 1 Rocket - Orbit

View from above orbital plane
View from above orbital plane
View from above satellite
View from above satellite

Ground track
Ground track

The orbit data is extracted from the following two-line orbital elements,

1    16U 58002A   20095.78678406 -.00000126 +00000-0 -19383-3 0  9992
2    16 034.2811 007.2566 2028223 287.1789 051.7573 10.48699687451102
Epoch (UTC): 04 April 2020 18:52:58
Eccentricity: 0.2028223
inclination: 34.2811°
perigee height: 650 km
apogee height: 4226 km
right ascension of ascending node: 7.2566°
argument of perigee: 287.1789°
revolutions per day: 10.48699687
mean anomaly at epoch: 51.7573°
orbit number at epoch: 45110

The dashed part of the orbit path shows where the satellite is in the earth's shadow,  

DLR